RH
48 43 39 37 37 37 36 36 35 34 34 34 34 33 32 32 31 32 32 32 32 32 31 32 32 32 31 31 30 29 29 29 29 29 29 29 29 29 29 29 29 30 30 32 33 34 34 35 35 36 36 37 36 36 37 37 37 39 42 50 60 71 80 84 86 89 94 97 98 99 99 99 98 98 97 95 94 93 92 90 89 87 82 74 69
49 44 40 38 38 38 37 37 35 35 35 35 35 34 33 32 33 33 34 33 33 32 32 32 32 32 31 30 29 29 29 29 29 29 29 29 29 29 29 29 29 30 31 32 33 33 34 35 36 36 36 36 35 35 36 36 38 38 38 42 49 59 71 80 84 87 92 97 99 98 99 99 98 98 97 95 95 95 94 92 91 91 87 79 72
49 44 41 40 40 39 39 38 37 36 36 35 35 34 34 34 35 35 35 35 35 34 33 33 32 32 30 30 30 29 30 30 30 30 30 30 30 30 30 30 30 31 32 33 34 34 35 36 37 38 38 38 36 35 36 36 37 38 37 38 42 48 60 72 80 84 88 93 97 98 99 99 97 98 99 96 94 95 95 93 91 92 92 88 79
50 45 43 43 41 40 39 39 38 37 37 37 36 36 36 36 37 37 37 37 36 35 35 34 32 32 31 31 31 31 32 32 32 32 32 32 32 32 32 32 32 33 34 35 35 36 37 38 38 39 39 39 39 38 38 38 38 38 37 37 38 41 50 62 73 80 85 90 95 98 98 98 97 98 99 98 96 96 97 95 93 93 95 93 85
52 48 46 43 42 41 40 39 39 39 38 38 38 37 38 38 39 39 39 38 37 36 34 33 32 32 31 32 32 32 33 32 32 32 32 32 32 32 31 32 32 34 35 36 37 37 38 38 38 39 39 39 39 39 39 38 38 38 38 37 37 38 44 54 64 75 82 87 93 97 98 98 97 97 98 98 99 98 97 97 96 96 97 96 91
54 50 47 44 43 42 41 41 40 40 39 39 39 39 40 40 40 39 39 38 37 35 33 32 31 31 31 31 31 31 30 29 29 29 29 30 30 30 30 30 31 33 34 34 35 35 35 36 36 36 37 38 38 39 39 39 38 38 38 38 38 38 42 48 57 66 75 83 90 95 99 99 97 97 97 98 99 100 99 99 97 97 97 96 95
57 52 48 46 44 43 42 42 41 41 40 40 41 41 41 41 41 40 39 38 36 34 32 31 30 30 29 29 28 27 26 25 25 26 27 27 28 29 29 29 29 30 30 30 31 31 31 32 32 33 34 35 36 37 38 39 38 38 39 39 38 38 40 46 53 59 66 76 84 90 96 99 97 97 98 99 99 100 100 99 98 97 97 95 95
59 54 50 47 46 44 43 43 42 41 41 41 42 43 44 43 42 41 40 38 34 32 30 28 27 27 26 25 25 25 24 24 24 24 24 24 26 27 27 28 28 28 28 28 28 29 29 29 30 30 31 32 33 35 37 38 38 38 39 39 39 39 39 43 50 55 58 66 76 85 93 97 97 96 98 100 100 99 99 100 99 99 98 95 92
60 55 52 49 47 46 45 44 44 43 43 43 45 45 45 44 42 41 39 35 31 28 26 25 24 24 24 23 23 23 23 23 22 22 21 21 22 23 25 25 26 26 26 25 26 26 27 27 27 28 28 29 31 33 35 37 37 37 38 38 38 39 39 41 47 53 56 58 67 79 88 95 97 97 98 99 98 98 99 100 99 99 99 97 93
59 56 53 50 48 47 46 46 45 45 46 47 47 48 47 44 42 40 36 31 28 25 24 23 23 22 22 21 20 20 20 20 20 19 19 19 20 20 21 22 23 23 24 23 23 23 24 24 24 25 26 26 28 30 32 35 36 37 37 37 38 38 38 40 44 51 55 56 60 71 81 90 96 97 96 95 96 97 98 98 98 99 100 99 96
60 58 55 53 51 50 50 49 48 48 49 49 49 49 46 43 41 37 31 27 25 24 23 22 20 19 18 18 18 18 18 18 18 17 17 17 17 18 18 19 19 20 21 21 21 21 21 22 22 22 23 23 24 26 28 32 35 36 37 37 38 38 38 39 42 49 55 56 57 63 72 83 91 96 96 95 96 98 98 97 98 99 100 99 99
62 60 58 56 55 53 52 51 51 51 51 50 50 47 44 41 37 32 28 25 24 23 21 19 18 17 17 17 17 17 17 17 16 15 15 15 15 15 16 17 17 19 19 20 21 21 20 20 20 20 21 21 21 22 23 25 30 34 36 37 37 38 40 40 42 47 54 57 57 58 63 74 84 91 95 97 98 98 98 99 99 99 99 98 98
65 62 59 57 55 53 53 52 52 52 51 50 48 44 41 37 33 29 26 25 23 20 19 17 17 17 17 18 17 17 16 15 14 13 13 12 12 12 14 15 17 19 20 21 22 23 22 22 21 21 21 21 20 20 20 21 24 29 34 37 38 39 40 42 44 49 54 58 59 57 59 67 76 83 90 96 98 97 98 99 99 99 99 98 98
65 61 58 56 55 54 54 53 52 51 50 47 44 40 36 32 29 27 25 22 20 19 18 18 17 17 18 17 16 15 14 13 12 11 11 11 10 11 13 14 17 18 19 21 23 24 25 25 25 24 24 24 23 22 21 20 22 25 31 37 41 41 41 44 47 52 56 58 60 60 59 62 68 75 83 91 96 98 98 99 99 98 96 94 95
63 60 58 57 56 55 54 52 50 48 46 43 40 36 32 29 27 25 22 21 19 19 18 18 18 18 17 15 14 12 12 11 11 10 10 10 10 10 11 13 15 17 18 21 24 26 26 26 27 28 28 29 30 30 26 24 23 25 29 36 40 43 45 47 49 53 57 60 60 62 63 63 65 71 78 86 94 98 99 99 99 98 96 93 94
62 60 59 58 56 55 52 49 46 44 41 38 34 31 29 27 25 23 22 20 19 18 18 18 17 16 14 13 11 11 11 10 10 10 10 10 9 10 11 13 15 17 18 20 24 26 27 27 27 28 31 33 36 36 34 31 29 29 31 34 38 44 49 52 53 54 57 60 61 62 67 70 68 69 75 83 91 98 100 99 99 99 99 99 99
62 61 59 57 54 51 47 44 42 39 36 33 30 28 27 25 23 22 21 20 18 18 18 17 15 13 12 11 10 10 10 10 10 10 10 10 10 11 13 14 16 17 19 21 24 26 27 28 28 28 31 34 37 38 38 37 36 37 38 38 40 45 50 53 55 57 58 61 62 62 67 70 68 68 74 81 87 92 95 97 99 100 100 99 99
63 60 57 53 50 46 43 40 37 33 31 29 28 26 25 23 22 20 20 19 19 18 17 14 13 11 10 10 10 10 10 10 10 11 11 11 11 12 14 16 17 18 20 22 24 25 27 30 31 32 33 34 36 39 40 39 39 41 45 46 46 49 55 56 57 60 62 63 63 64 67 71 71 71 73 78 81 83 86 92 98 100 99 99 100
61 56 51 48 44 42 38 35 32 30 29 27 25 23 21 20 21 20 20 19 17 15 13 11 10 9 9 9 9 10 10 11 11 12 12 13 13 14 16 17 18 20 21 22 23 25 27 30 32 34 35 36 38 40 42 43 42 41 44 47 46 53 65 68 63 63 65 64 67 71 74 78 79 77 73 75 79 79 81 88 94 97 98 98 99
55 49 45 43 39 36 33 31 30 29 27 24 21 20 20 21 21 20 19 16 14 12 10 9 8 9 9 9 9 10 11 12 13 14 14 15 15 16 17 18 19 21 22 23 24 25 26 29 30 32 35 38 40 44 49 50 48 44 43 44 48 60 71 72 67 66 67 68 71 76 79 82 84 81 75 74 79 82 83 85 89 94 98 98 99
48 43 40 37 34 32 32 31 29 27 23 21 20 20 21 21 20 18 15 12 10 9 8 8 8 8 8 9 10 11 12 14 16 16 16 17 17 17 18 19 20 21 23 24 25 26 27 28 30 32 36 41 46 53 58 59 55 52 47 45 54 69 74 69 67 68 69 72 76 76 79 82 82 80 77 74 76 82 85 85 86 90 95 97 98
41 38 36 34 32 32 31 29 26 23 21 20 20 21 21 19 16 14 11 9 9 8 8 8 8 8 9 9 10 12 14 16 17 17 18 18 19 19 19 20 20 21 23 24 25 27 28 30 31 33 38 44 53 62 67 67 66 64 58 54 60 72 76 74 73 70 68 73 79 78 79 81 80 79 78 75 73 77 82 84 85 86 89 92 95
38 36 35 34 33 31 28 25 22 21 21 21 21 20 18 16 13 11 9 8 8 7 8 8 8 8 9 10 11 13 15 17 19 19 19 20 20 19 20 20 20 21 22 24 26 28 29 31 33 36 40 46 55 65 70 72 74 72 68 68 71 74 77 83 85 80 73 73 75 77 80 81 82 82 83 83 79 76 78 82 84 85 84 85 88
37 36 35 33 30 26 24 22 22 22 22 21 20 18 15 13 10 9 8 8 8 8 8 8 9 9 10 11 12 14 15 18 19 20 20 20 20 19 20 20 20 20 22 24 26 29 31 33 35 37 41 46 54 63 69 73 78 75 69 73 80 77 78 90 96 93 87 80 74 73 76 79 82 84 86 87 83 77 77 80 85 86 84 82 82
37 35 32 28 25 23 23 24 24 23 22 20 18 16 13 11 9 9 9 9 8 9 9 9 9 10 11 12 13 14 15 17 19 20 20 19 20 19 19 19 20 20 21 24 27 29 31 33 35 37 41 44 50 60 68 75 85 85 76 76 86 86 85 95 101 98 96 93 86 81 78 77 78 80 83 85 84 81 80 81 84 87 85 83 84
35 31 27 25 25 25 25 25 24 23 21 19 17 14 11 10 9 10 10 10 10 10 10 10 10 10 11 13 14 15 16 17 19 20 20 20 19 19 19 19 19 20 21 22 25 28 30 32 34 35 39 42 47 57 68 77 88 96 89 86 93 96 94 97 100 99 99 98 96 94 90 84 81 81 82 84 84 84 83 81 83 88 89 89 90
30 27 26 27 27 27 26 25 24 23 21 17 14 13 11 11 11 11 11 11 11 11 11 11 11 11 11 13 14 16 17 19 20 22 22 21 21 20 20 20 19 20 21 21 23 26 28 30 32 33 36 41 44 53 68 78 85 93 95 94 95 98 98 98 98 99 100 99 98 99 98 95 93 91 90 89 86 84 81 80 82 87 89 89 88
27 28 29 29 28 27 27 26 23 21 18 15 14 14 14 13 13 13 13 13 13 14 14 14 14 13 12 13 14 16 19 20 22 24 24 23 22 21 21 21 21 21 22 22 22 25 26 27 29 30 31 35 39 46 59 73 80 86 93 97 96 94 95 98 99 99 98 98 98 99 98 99 99 99 98 96 92 86 80 78 78 79 79 79 79
29 29 29 28 28 27 26 24 21 18 17 16 16 16 15 15 16 16 16 16 16 16 17 17 17 16 15 14 14 15 18 21 23 24 25 24 23 23 22 23 23 22 23 23 22 23 23 24 27 29 29 31 35 40 48 60 72 79 85 92 95 93 90 91 95 98 98 97 97 98 98 99 99 99 99 99 97 92 85 81 80 78 76 75 76
29 29 28 28 28 27 24 22 19 18 17 17 18 18 18 18 18 19 19 19 19 19 19 19 19 19 18 17 15 14 17 20 22 23 23 23 24 24 23 23 24 23 23 23 22 22 22 23 26 29 30 30 32 37 42 49 61 72 77 83 90 94 93 91 93 95 97 97 97 98 99 98 98 98 98 98 97 96 93 90 87 84 82 82 82
28 28 28 28 26 24 21 19 18 18 19 19 20 21 21 21 21 21 22 22 23 23 22 22 21 20 19 19 17 16 15 17 20 21 23 23 24 24 24 24 24 24 23 23 22 22 22 24 25 27 30 31 30 33 37 42 50 62 72 78 84 89 92 93 93 93 94 95 96 97 97 96 96 96 96 96 96 96 96 95 93 90 87 86 85
27 27 27 26 23 21 19 18 18 19 20 21 21 22 23 24 24 24 24 25 25 26 26 25 23 22 20 19 19 18 16 16 18 20 21 23 23 24 25 25 25 24 24 23 24 24 23 24 25 26 28 30 30 30 33 36 41 49 60 69 76 81 85 88 91 93 93 93 93 93 93 93 93 92 91 90 91 92 92 92 91 90 88 87 86
28 27 25 22 20 19 19 19 20 20 21 21 22 23 24 26 26 26 26 26 27 27 27 27 26 25 24 21 20 20 19 17 16 18 20 22 23 24 24 25 25 25 24 24 24 25 24 24 25 26 26 28 29 29 30 32 35 39 45 53 62 70 76 81 86 90 91 91 90 90 89 89 89 88 87 85 85 86 88 89 90 90 91 91 90
26 24 21 20 19 19 19 20 21 22 22 22 23 23 24 25 26 27 28 28 28 28 28 28 28 27 26 24 21 21 21 19 18 17 18 20 22 23 24 24 24 24 24 25 25 25 24 22 22 23 24 25 27 28 28 29 31 32 35 40 47 54 60 66 73 80 85 88 89 89 87 85 84 84 84 82 82 82 84 86 88 89 91 91 91
23 21 20 19 19 20 20 20 22 23 24 24 24 24 25 25 26 27 28 29 29 30 30 29 29 28 27 26 24 22 22 21 20 19 18 18 20 21 22 23 24 24 25 25 26 25 23 21 20 20 21 22 22 24 26 27 28 29 30 32 36 39 43 48 54 61 69 76 81 84 84 84 83 83 83 82 80 80 80 82 84 86 88 90 90
21 19 20 20 20 20 21 21 23 24 25 26 26 25 25 25 26 27 27 28 29 29 30 30 30 29 28 28 26 24 23 22 22 22 20 18 18 19 20 22 24 26 26 26 27 26 23 21 20 20 20 20 20 21 21 23 25 27 28 29 30 31 33 37 41 47 51 57 63 69 73 76 78 80 81 81 81 80 79 79 80 83 85 87 89
20 19 20 21 21 21 22 22 23 25 26 27 27 27 26 26 26 27 27 27 27 28 29 30 30 31 30 29 28 27 25 24 23 23 22 21 19 19 20 22 23 24 25 26 26 25 23 21 21 21 21 21 21 20 20 21 21 22 24 25 26 27 28 30 33 36 40 43 47 51 55 60 64 68 71 73 76 77 77 77 78 80 81 83 85
19 20 21 22 22 23 23 23 24 25 27 27 28 28 27 26 27 28 28 28 27 27 27 28 29 31 31 30 28 27 26 24 23 22 23 23 22 20 20 20 21 22 23 24 23 23 23 22 22 22 22 22 22 21 20 20 20 20 20 21 22 24 25 26 26 28 31 34 37 40 43 46 49 53 57 60 63 66 69 70 72 74 76 76 78
20 20 21 22 23 24 24 24 25 26 27 28 29 28 27 27 28 28 29 29 29 28 27 27 29 30 31 29 28 28 27 26 24 24 24 24 24 24 22 21 21 21 22 22 22 22 23 23 23 23 23 23 22 21 21 20 19 18 18 18 19 19 21 22 22 22 24 26 29 33 35 38 39 42 46 49 52 54 57 60 62 64 66 68 71
20 21 21 23 23 24 25 25 26 26 27 28 29 29 28 28 28 29 29 29 30 30 29 28 29 29 29 28 28 28 29 28 27 25 25 25 25 26 25 24 23 22 22 22 23 23 23 24 24 23 23 23 22 22 22 21 20 18 17 17 16 16 16 17 18 19 20 21 23 26 29 32 34 36 38 41 44 47 49 51 53 55 57 60 63
21 22 22 23 23 24 25 26 26 27 27 28 29 30 29 29 29 29 29 29 30 31 30 29 28 27 26 26 26 26 27 28 27 26 26 26 26 26 27 27 26 25 24 24 23 23 24 24 24 24 24 24 24 23 23 22 21 20 19 18 17 15 15 14 15 15 17 18 19 20 23 26 29 31 33 35 37 40 43 45 47 49 51 53 57
21 21 22 22 23 24 25 26 27 27 27 28 29 30 30 29 29 30 30 30 31 31 31 30 29 26 24 23 23 23 24 25 25 25 26 27 27 27 27 28 28 28 27 26 25 25 25 26 26 26 26 25 25 24 23 23 22 21 20 19 18 17 16 15 15 14 14 15 16 17 19 21 24 27 29 31 32 34 36 39 41 43 45 47 50
21 21 22 22 23 24 25 26 27 28 28 28 28 29 29 29 29 29 29 29 29 30 30 29 28 25 22 21 21 21 22 22 23 23 24 25 26 27 28 28 29 30 31 30 29 28 28 28 28 28 27 27 27 27 27 26 25 24 23 22 21 19 18 17 17 16 15 15 15 15 16 18 20 23 25 27 29 30 32 34 36 38 40 42 45
21 21 22 22 23 24 25 26 27 27 27 26 26 27 28 28 28 29 29 28 27 27 27 28 27 24 22 21 21 21 21 21 22 22 23 23 24 26 27 29 30 31 33 34 33 33 33 33 32 31 30 30 31 32 32 31 30 29 28 27 26 24 22 21 19 18 17 16 16 15 15 16 17 20 22 24 25 27 28 30 31 33 35 37 39
21 22 22 22 23 23 24 25 26 26 26 25 26 26 27 28 28 29 29 28 27 26 25 25 25 23 22 21 21 22 22 22 22 23 23 23 24 24 26 28 29 31 33 35 37 37 37 38 38 37 36 36 37 37 37 36 35 35 34 33 32 31 29 27 25 23 21 19 18 17 17 16 16 17 19 21 22 24 25 26 27 28 30 33 35
22 22 22 23 23 24 24 23 24 25 25 25 26 27 27 27 28 28 28 29 29 27 25 24 24 23 23 23 23 23 23 24 24 24 24 24 25 25 26 27 28 30 32 35 37 39 40 41 43 43 42 41 42 42 42 41 41 40 39 38 38 37 35 34 32 30 27 25 23 21 20 19 19 18 18 19 20 21 22 23 23 23 25 27 30
22 23 23 23 23 24 24 23 23 24 25 26 26 27 27 27 27 27 28 28 29 29 28 27 25 24 24 24 24 25 25 25 25 26 26 26 26 27 27 27 28 29 31 33 36 39 41 43 45 46 47 46 46 46 46 46 46 45 45 44 44 43 42 40 38 36 34 32 30 27 25 23 22 21 20 19 19 19 20 21 21 21 22 23 26
23 23 23 23 23 24 24 24 24 25 25 26 27 27 27 27 27 27 27 27 28 29 29 30 29 28 27 26 26 26 26 26 26 27 27 27 27 28 28 29 29 30 31 32 34 37 40 42 45 47 49 50 49 49 50 50 50 50 49 49 48 48 48 47 46 43 41 38 37 35 33 30 27 25 24 23 22 21 20 19 19 20 20 21 22
23 23 23 23 23 24 24 24 25 26 26 27 27 27 27 28 27 27 27 27 27 28 29 29 30 31 30 29 28 29 29 29 30 30 30 29 29 29 29 30 30 31 32 32 34 35 38 40 43 46 49 51 52 52 52 52 52 52 51 51 51 51 50 50 51 50 48 46 43 41 40 38 36 33 30 28 26 25 23 21 20 19 19 19 21
23 23 23 23 23 24 24 25 26 26 27 27 27 28 28 28 28 28 28 28 28 29 29 29 30 31 32 32 32 32 33 34 34 34 34 33 33 32 31 31 31 32 33 33 34 35 37 39 42 45 47 51 53 54 54 54 54 53 53 53 52 53 52 52 53 53 53 52 50 47 45 44 42 41 39 36 34 31 29 27 25 23 21 20 20
24 23 23 24 24 24 24 25 25 26 27 28 28 28 28 28 28 28 28 29 29 30 30 30 31 31 32 33 33 34 35 36 36 37 37 37 37 36 35 34 33 33 33 34 35 36 37 39 41 43 46 49 52 55 57 57 57 56 56 56 56 56 56 56 56 56 55 55 55 54 52 50 48 47 46 44 42 40 38 35 32 30 27 25 23